Location: Newark
(45.4041°N, 17.9426°E)
Time: 00:57:51
(UTC+00:00)

Envisat - Pass Details

Date: 30 September 2019
Orbit: 764 x 766 km, 98.1° (Epoch: 19 October)

Event Time Altitude Azimuth Distance (km) Brightness Sun altitude
Rises 18:11:58 0° 210° (SSW) 3,220 6.4 -18.4°
Reaches altitude 10° 18:15:03 10° 230° (SW) 2,300 5.9 -18.9°
Maximum altitude 18:18:19 17° 270° (W) 1,861 5.9 -19.4°
Drops below altitude 10° 18:21:36 10° 311° (NW) 2,311 6.5 -20.0°
Sets 18:24:45 0° 331° (NNW) 3,242 7.0 -20.5°
